Zurück zum Katalog

GLOBAL-9

AktivKommunikationVLEO
NORAD 47971·PAYLOAD·🇺🇸 United States

Gestartet Mar 22, 2021 von Rocket Lab Launch Complex 1

Loading…

Nächste Überflüge (nächste 24 Stunden)

TLE

AktuellSource: Space-Track

Epoche: Sep 14, 2026, 14:43 UTC

1 47971U 21023G   26257.61338753  .00019543  00000-0  34712-3 0  9996
2 47971  44.9795 106.6313 0004288 209.9822 150.0824 15.49936170308806

Verfolge GLOBAL-9 in Echtzeit mit AllMySat

Download on the App Store